Left ArrowRight Arrow

35.59393, -105.2239

Hourly Observations for June 12, 2024

Temp ( °F °C ) Dew Point ( °F °C ) Humidity (%) Winds ( mph kmh ) Pressure ( in mb ) Visibility ( mi km ) Precip ( " mm )
12:53 am 00:53 Clear 54 12.2 49 9.4 83 83 ESE 6 9 29.94 1014 10 16 0.00 0.00
1:53 am 01:53 Clear 56 13.3 47 8.3 72 72 S 14 22 29.93 1014 10 16 0.00 0.00
2:53 am 02:53 Clear 56 13.3 47 8.3 72 72 S 9 15 29.93 1013 10 16 0.00 0.00
3:53 am 03:53 Clear 55 12.8 46 7.8 72 72 SSE 10 17 29.94 1014 10 16 0.00 0.00
4:53 am 04:53 Clear 53 11.7 46 7.8 77 77 S 3 6 29.99 1016 10 16 0.00 0.00
5:53 am 05:53 Sunny 56 13.3 46 7.8 69 69 WNW 3 6 29.99 1016 10 16 0.00 0.00
6:53 am 06:53 Sunny 59 15 49 9.4 69 69 S 7 11 30.00 1016 10 16 0.00 0.00
7:53 am 07:53 Sunny 63 17.2 49 9.4 60 60 S 6 9 30.00 1016 10 16 0.00 0.00
8:53 am 08:53 Sunny 67 19.4 52 11.1 59 59 S 7 11 29.99 1016 10 16 0.00 0.00
9:53 am 09:53 Sunny 73 22.8 53 11.7 50 50 VRB 3 6 29.96 1015 10 16 0.00 0.00
10:53 am 10:53 Sunny 79 26.1 51 10.6 38 38 S 5 7 29.94 1014 10 16 0.00 0.00
11:53 am 11:53 Sunny 83 28.3 42 5.6 24 24 Calm 29.94 1014 10 16 0.00 0.00
12:53 pm 12:53 Sunny 85 29.4 41 5 21 21 NNW 8 13 29.92 1013 10 16 0.00 0.00
1:53 pm 13:53 Sunny 86 30 40 4.4 20 20 N 5 7 29.89 1012 10 16 0.00 0.00
2:53 pm 14:53 Sunny 86 30 38 3.3 18 18 NNW 9 15 29.88 1012 10 16 0.00 0.00
3:53 pm 15:53 Sunny 87 30.6 37 2.8 17 17 NNW 14 22 29.87 1011 10 16 0.00 0.00
4:53 pm 16:53 Sunny 82 27.8 40 4.4 22 22 NNE 12 19 29.88 1012 10 16 0.00 0.00
5:53 pm 17:53 Sunny 81 27.2 50 10 34 34 E 6 9 29.86 1011 10 16 0.00 0.00
6:53 pm 18:53 Sunny 82 27.8 40 4.4 22 22 S 6 9 29.85 1011 10 16 0.00 0.00
7:53 pm 19:53 Sunny 74 23.3 55 12.8 52 52 SSE 8 13 29.87 1012 10 16 0.00 0.00
8:53 pm 20:53 Clear 73 22.8 46 7.8 38 38 SSE 8 13 29.87 1011 10 16 0.00 0.00
9:53 pm 21:53 Clear 68 20 47 8.3 47 47 S 9 15 29.88 1012 10 16 0.00 0.00
10:53 pm 22:53 Clear 66 18.9 46 7.8 48 48 NNW 7 11 29.87 1012 10 16 0.00 0.00
11:53 pm 23:53 Clear 70 21.1 38 3.3 31 31 WNW 8 13 29.84 1010 10 16 0.00 0.00

Powered by Vaisala Xweather